Location: Bucquoy
(50.1391°N, 2.7097°E)
Time: 03:54:55
(UTC+00:00)

SL-14 R/B - Pass Details

Date: 06 May 2021
Orbit: 519 x 553 km, 82.4° (Epoch: 22 June)

Event Time Altitude Azimuth Distance (km) Brightness Sun altitude
Exits shadow 03:20:01 - 183° (S) 2,534 6.3 -8.4°
Reaches altitude 10° 03:21:53 10° 182° (S) 1,764 5.5 -8.2°
Maximum altitude 03:25:45 73° 98° (E) 559 3.5 -7.7°
Drops below altitude 10° 03:29:41 10° 14° (NNE) 1,799 6.8 -7.2°
Sets 03:31:51 0° 12° (NNE) 2,701 7.7 -6.9°
